STARLINK-2381, 47800

Orbit data source: Space-Track

STARLINK-2381, 47800 is a payload satellite owned by SpaceX/Seattle (US) in LEO that was launched on Thu, 11 Mar 2021 UTC via an FALCON 9 launch vehicle from the Air Force Eastern Test Range (AFETR). Payload-class satellites include a variety of spacecraft equipped with specific instruments for various scientific and technological missions. These include communications satellites like Starlink; space stations such as the ISS; scientific satellites like the Hubble; Earth observation satellites from companies like Planet Labs, Umbra, and HawkEye 360; GPS; miniature CubeSats for education and research; and military/defense satellites.

Loading next visibility...
Identifier
47800, 2021-018P
Orbit
LEO
Country
Flag of USUS
Related business
Manufacturer
SpaceX/Seattle
Mission
Operational Commercial Communications
Bus & Motor
STARLINK, Unknown motor
Mass
260 kg wet, ~248 kg dry
Launch date (UTC)
2021-03-11 (5 years ago)
Launch vehicle
FALCON 9
Launch site
Air Force Eastern Test Range (AFETR)
Object type
Payload
Rocket body
Debris
Shape & HBR
Box + 1 Pan, 10.1 m
Radar Cross Section
13.562 m², Large (>1 m²)

Expand to show TLE details & history
Last TLE update: 11 hours ago

TLE from 11 hours ago
0 STARLINK-2381
1 47800U 21018P   25292.30263866  .00027469  00000-0  18560-2 0  9995
2 47800  53.0506 146.3301 0001634 103.1800 256.9372 15.06396664255568
Epoch: 2025-10-19T07:15Z
TLE epoch observation values (Epoch: 2025-10-19T07:15:47.980Z)
Latitude
0.00005°
Longitude
9.35897°
Altitude
548.356 km
Speed
7.589 km/s
True Right ascension
09h 45m 19s
True Declination
0° 00' 00"
Sunlit
Object was in daylight at epoch
Visualization orbit readout
Latitude
Unknown
Longitude
Unknown
Altitude
Unknown
Speed
Unknown
Apparent Right ascension
Unknown
Apparent Declination
Unknown
Sunlit
N/A
Visualization observer readout
Local Sidereal Time
13:27:37
Azimuth
Unknown
Elevation
Unknown
Doppler factor
Unknown
Orbital elements
Apogee altitude
548.625 km
Perigee altitude
546.361 km
Semi-major axis
6,925.63 km
Eccentricity
0.00016
Inclination
53.0506°
RAAN
146.3301°
Arg. of periapsis
103.18°
True anomaly
256.91896°
Mean anomaly
256.9372°
Eccentric anomaly
256.92808°
Mean motion
3.76577 °/min
Orbital period
95.6 mins
BSTAR
0.001856
Loading maneuver chart data...
Computing Atmospheric mass density...

Documentation

Showing up to 5 results
|